This demonstration page uses our WeatherBlox Daily Observations layout. Learn more.

Left ArrowRight Arrow

30.00354, -91.81873

Hourly Observations for August 8, 2022

Temp ( °F °C ) Dew Point ( °F °C ) Humidity (%) Winds ( mph kmh ) Pressure ( in mb ) Visibility ( mi km ) Precip ( " mm )
12:53 am 00:53 Clear 76 24.4 72 22.2 88 88 NE 3 6 30.09 1019 10 16 0.00 0.00
1:53 am 01:53 Clear 76 24.4 73 22.8 91 91 NE 5 7 30.08 1019 10 16 0.00 0.00
2:53 am 02:53 Clear 75 23.9 72 22.2 90 90 N 3 6 30.08 1019 10 16 0.00 0.00
3:53 am 03:53 Clear 74 23.3 72 22.2 94 94 NNW 3 6 30.07 1018 10 16 0.00 0.00
4:53 am 04:53 Clear 74 23.3 72 22.2 94 94 N 3 6 30.07 1018 10 16 0.00 0.00
5:53 am 05:53 Clear 75 23.9 72 22.2 90 90 Calm 30.07 1018 10 16 0.00 0.00
6:53 am 06:53 Sunny 76 24.4 73 22.8 91 91 E 3 6 30.08 1019 10 16 0.00 0.00
7:53 am 07:53 Sunny 79 26.1 75 23.9 88 88 Calm 30.09 1019 10 16 0.00 0.00
8:53 am 08:53 Sunny 83 28.3 76 24.4 79 79 Calm 30.11 1020 10 16 0.00 0.00
9:53 am 09:53 Partly Cloudy 86 30 76 24.4 72 72 Calm 30.11 1020 10 16 0.00 0.00
10:53 am 10:53 Mostly Cloudy 90 32.2 74 23.3 59 59 VRB 5 7 30.11 1020 10 16 0.00 0.00
11:09 am 11:09 Partly Cloudy 87 30.6 72 22.2 61 61 Calm 30.11 1020 10 16 0.00 0.00
11:53 am 11:53 Sunny 91 32.8 72 22.2 54 54 Calm 30.10 1019 10 16 0.00 0.00
12:53 pm 12:53 Sunny 92 33.3 74 23.3 56 56 ENE 7 11 30.08 1019 10 16 0.00 0.00
1:26 pm 13:26 Sunny with Nearby Thunderstorms 93 33.9 73 22.8 52 52 ENE 7 11 30.08 1018 10 16 0.00 0.00
1:39 pm 13:39 Partly Cloudy with Thunderstorms 89 31.7 72 22.2 57 57 S 13 20 30.09 1019 10 16 0.00 0.00
1:53 pm 13:53 Partly Cloudy with Nearby Thunderstorms 83 28.3 72 22.2 70 70 S 10 17 30.08 1019 10 16 0.00 0.00
2:09 pm 14:09 Mostly Sunny 82 27.8 72 22.2 72 72 SSW 7 11 30.07 1018 10 16 0.00 0.00
2:53 pm 14:53 Sunny 83 28.3 73 22.8 72 72 SSE 10 17 30.07 1018 10 16 0.00 0.00
3:53 pm 15:53 Sunny 83 28.3 70 21.1 65 65 SE 8 13 30.05 1018 10 16 0.00 0.00
4:53 pm 16:53 Sunny 82 27.8 71 21.7 69 69 SE 6 9 30.04 1017 10 16 0.00 0.00
5:53 pm 17:53 Sunny 82 27.8 71 21.7 69 69 SE 6 9 30.03 1017 10 16 0.00 0.00
6:53 pm 18:53 Sunny 81 27.2 72 22.2 74 74 SSE 7 11 30.03 1017 10 16 0.00 0.00
7:53 pm 19:53 Sunny 78 25.6 73 22.8 85 85 S 3 6 30.04 1017 10 16 0.00 0.00
8:53 pm 20:53 Clear 78 25.6 73 22.8 85 85 Calm 30.06 1018 10 16 0.00 0.00
9:53 pm 21:53 Clear 77 25 73 22.8 88 88 E 5 7 30.08 1019 10 16 0.00 0.00
10:53 pm 22:53 Clear 77 25 73 22.8 88 88 ESE 5 7 30.07 1018 10 16 0.00 0.00
11:53 pm 23:53 Clear 76 24.4 73 22.8 91 91 Calm 30.06 1018 10 16 0.00 0.00

Powered by AerisWeather